Regional Weather Roundup
Issued by NWS

Home | Current Version | Previous Version | Text Only | Print | Product List | Glossary On
Versions: 1 2 3 4 5 6 7 8 9 10 11 12 13 14 15 16 17 18 19 20 21 22 23 24 25 26 27 28 29 30 31 32 33 34 35 36 37 38 39 40 41 42 43 44 45 46 47 48 49 50
000
ASUS42 KFFC 011903
RWRGA
WEATHER ROUNDUP FOR GEORGIA
NATIONAL WEATHER SERVICE PEACHTREE CITY GA
300 PM EDT MON SEP 01 2014

NOTE: "FAIR" INDICATES FEW OR NO CLOUDS BELOW 12,000 FEET WITH NO
SIGNIFICANT WEATHER AND/OR OBSTRUCTIONS TO VISIBILITY.

* = USE WITH CAUTION. THE STATIONS MARKED WITH AN ASTERISK MAY NOT
REPORT WEATHER SUCH AS PRECIPITATION, FOG, OR THUNDER AND ARE NOT
QUALITY CONTROLLED BY NWS.

THE REMARK "TC" DENOTES TEMPERATURE READING IN DEGREES CELSIUS.

GAZ001>058-012000-
NORTH GEORGIA

CITY           SKY/WX    TMP DP  RH WIND       PRES   REMARKS
ATLANTA        PTSUNNY   83  72  69 W5        30.12F
ATHENS         PTSUNNY   95  68  41 SW5       30.11F HX  99
CHAMBLEE       MOSUNNY   88  67  49 SW6       30.11F HX  91
PEACHTREE CITY PTSUNNY   89  72  56 NW9       30.11F HX  96
ROME           MOSUNNY   93  69  45 S9        30.08F HX  98
WEST ATLANTA   PTSUNNY   88  70  55 W6        30.10F HX  93
GAINESVILLE    MOSUNNY   88  65  46 W10       30.15F HX  90
CARTERSVILLE   MOSUNNY   91  68  46 S5        30.10F HX  95


CITY           SKY/WX    TMP DP  RH WIND       PRES   REMARKS
DALTON*        MOSUNNY   88  70  55 CALM      30.10F HX  92
LAWRENCEVILLE* SUNNY     90  66  45 W7        30.12F HX  92
MARIETTA       PTSUNNY   90  71  53 SW7       30.12F HX  96
KENNESAW*      MOSUNNY   88  70  55 NW6       30.14F HX  92
$$

GAZ059>098-102>109-012000-
CENTRAL GEORGIA

CITY           SKY/WX    TMP DP  RH WIND       PRES   REMARKS
AUGUSTA-BUSH   MOSUNNY   97  67  37 S8        30.05F HX 101
AUGUSTA-DANIEL MOSUNNY   97  67  37 VRB3      30.07F HX 101
COLUMBUS       MOSUNNY   94  70  45 S5        30.07F HX 100
MACON          PTSUNNY   92  71  50 CALM      30.07F HX  98
ROBINS AFB     SUNNY     95  72  46 SE5       30.06F HX 103


CITY           SKY/WX    TMP DP  RH WIND       PRES   REMARKS
LAGRANGE*      MOSUNNY   99  74  45 W5        30.09F HX 110
SYLVANIA*      PTSUNNY   87  69  56 CALM      30.08F HX  91
MILLEDGEVILLE* MOSUNNY   91  73  55 CALM      30.07F HX 100
$$

GAZ099>101-110>166-012000-
SOUTH GEORGIA

CITY           SKY/WX    TMP DP  RH WIND       PRES   REMARKS
SAVANNAH       PTSUNNY   93  74  53 SE12      30.07F HX 103
VALDOSTA       SUNNY     94  70  45 S6        30.08F HX 100
ALMA           MOSUNNY   92  74  55 S7        30.07F HX 101
ST SIMONS      SUNNY     89  75  63 SE12      30.08F HX  99
FT STEWART     MOSUNNY   93  72  50 SE8       30.06F HX 101
ALBANY         MOSUNNY   92  71  50 CALM      30.09F HX  98
HUNTER AFB     MOSUNNY   91  76  62 VRB7      30.06F HX 103
MOODY AFB      SUNNY     93  71  47 SE5       30.08F HX 100
BRUNSWICK      MOSUNNY   95  72  46 S6        30.08F HX 103


CITY           SKY/WX    TMP DP  RH WIND       PRES   REMARKS
BAINBRIDGE*    MOSUNNY   99  72  41 W8        30.07F HX 107
MOULTRIE*      SUNNY     91  68  46 S3        30.09F HX  95
VIDALIA*         N/A     95  72  46 CALM      30.08F HX 103
WAYCROSS*      PTSUNNY   94  78  59 E3        30.07F HX 108
DOUGLAS*       PTSUNNY   95  70  43 SE9       30.08F HX 101
$$


USA.gov is the U.S. government's official web portal to all federal, state and local government web resources and services.